Weather in Gutay

Russia / Zabaykalsky Krai     49°59′36″N   108°11′45″E
temp.,
°C
wind,
m/s
gust,
m/s
humid.,
%
clouds,
%
prec.,
mm/h
press.,
hPa
HPBL,
m
13 may, thu
thu1300:00+3e117480 0.0 101111
03:00+2ne2285100 0.0 101242
06:00+2nne239997 0.1 1012167
09:00+1nnw1299100 2.2 1014134
12:00+6nne136497 1.8 10111037
15:00+8n2360100 1.9 10101580
18:00+8n4438100 0.1 10101915
21:00+3nnw115498 0.1 101310
14 may, fri
fri1400:00−1w1163100 0.0 101711
03:00−4sse11700 0.0 101910
06:00−5ssw21733 0.0 102014
09:00+2w24466 0.0 1019676
12:00+8nw343399 0.0 10162430
15:00+10nw4529100 0.0 10143012
18:00+10nw452996 0.0 10142499
21:00+5w11469 0.0 101710
15 may, sat
sat1500:00+1sse22620 0.0 102117
03:00−1sse21660 0.0 102217
06:00−2sse21670 0.0 102219
09:00+7sw13350 0.0 1019388
12:00+14w46180 0.0 10151789
15:00+16w45211 0.0 10132628
18:00+16wnw45215 0.0 10122899
21:00+9nne224897 0.0 101412
16 may, sun
sun1600:00+5ese116121 0.0 101810
03:00+3se11695 0.0 101911
06:00+2s11725 0.0 101913
09:00+10wsw12425 0.0 1016335
12:00+16w482888 0.0 10121544
15:00+19w5824100 0.0 10102378
18:00+19wnw4726100 0.0 10082651
21:00+12ne2253100 0.0 101123
17 may, mon
mon1700:00+7e227632 0.0 101224
03:00+6e218248 0.0 101115
06:00+4se118713 0.0 101010
09:00+12sw23519 0.0 1008424
12:00+18w473727 0.0 10061366
15:00+19nw473470 0.0 10042352
18:00+19nnw353524 0.0 10041814
21:00+13ne2153100 0.0 100412